Location: Toronto
(43.6667°N, 79.4167°W)
Time: 20:01:37
(UTC-05:00)

ISS - Visible Passes

Search period start: 06 December 2022 00:00
Search period end: 16 December 2022 00:00
Orbit: 414 x 420 km, 51.6° (Epoch: 06 December)

Date Brightness Start Highest point End Pass type
(mag) Time Alt. Az. Time Alt. Az. Time Alt. Az.
06 Dec -3.8 17:17:03 10° WNW 17:20:24 85° NNE 17:23:45 10° ESE visible
06 Dec -0.7 18:55:04 10° WSW 18:56:44 13° SW 18:58:24 10° SSW visible
07 Dec -1.2 18:06:06 10° W 18:08:44 22° SW 18:11:22 10° S visible
08 Dec -2.0 17:17:35 10° WNW 17:20:41 36° SW 17:23:46 10° SSE visible
10 Dec -0.4 17:18:53 10° W 17:20:41 14° SW 17:22:29 10° SSW visible
15 Dec -0.3 06:50:01 10° SSE 06:51:29 12° SE 06:52:59 10° ESE visible
